sat.trackr.live / text

‹ back to catalog

NUSANTARA LIMA (NUSANT*)

NORAD 65588 · 2025-205A

PAYLOAD ACTIVE UNKNOWN

§ Identity

Operator
Country
INDO
Launch date
2025-09-12
Launch site
AFETR
Launch vehicle
Mass (kg)
RCS (m²)

External: N2YO · Heavens-Above · Gunter

§ Orbital elements

Epoch: 2026-05-25T00:51:06.241824Z

Period
1,436.09 min
Inclination
0.0466°
Eccentricity
0.0000320
Mean motion
1.00272421 rev/d
Perigee alt
35,785.1 km
Apogee alt
35,787.8 km
Semi-major
42,164.6 km
B*
0.0000e+0
RAAN
113.9751°
Arg perigee
341.6695°
Mean anomaly
272.6213°
Rev number
248

§ Raw data

NUSANTARA LIMA (NUSANT*)1 65588U 25205A   26145.03548891 -.00000360  00000+0  00000+0 0  99902 65588   0.0466 113.9751 0000320 341.6695 272.6213  1.00272421  2482

JSON: /api/v1/satellites/65588 · /tle

For live sub-satellite position, see the globe view (requires WebGL).

§ Visibility from observer

Set your observer location to see the next 7 days of passes ≥ 10°. The values pass through the URL so the page stays shareable.

No JS? Fill the form by hand. The geolocation button needs JavaScript.